| time (UTC) | temp C | wind direction | speed KPH | gust KPH | rain 1hr cm | rain 24hr cm | rain mn cm | humidity % | barometer mb |
| 20260509103044 | 11 | 54 | 0.0 | 4.8 | 0.00 | 0.00 | 0.00 | ||
| 20260509100054 | 11 | 75 | 1.6 | 3.2 | 0.00 | 0.00 | 0.00 | ||
| 20260509093039 | 11 | 65 | 0.0 | 1.6 | 0.00 | 0.00 | 0.00 | ||
| 20260509090104 | 11 | 65 | 0.0 | 1.6 | 0.00 | 0.00 | 0.00 | ||
| 20260509083020 | 11 | 65 | 0.0 | 1.6 | 0.00 | 0.00 | 0.00 | ||
| 20260509080103 | 11 | 69 | 0.0 | 3.2 | 0.00 | 0.00 | 0.00 | ||
| 20260509073043 | 11 | 53 | 0.0 | 3.2 | 0.00 | 0.00 | 0.00 | ||
| 20260509070112 | 11 | 62 | 0.0 | 3.2 | 0.00 | 0.00 | 0.00 | ||
| 20260509063049 | 11 | 71 | 0.0 | 3.2 | 0.00 | 0.00 | 0.00 | ||
| 20260509060100 | 12 | 229 | 0.0 | 1.6 | 0.00 | 0.00 | 0.00 | ||
| 20260509053040 | 11 | 229 | 0.0 | 1.6 | 0.00 | 0.00 | 0.00 | ||
| 20260509050052 | 11 | 229 | 0.0 | 1.6 | 0.00 | 0.00 | 0.00 | ||
| 20260509043052 | 12 | 229 | 0.0 | 0.0 | 0.00 | 0.00 | 0.00 | ||
| 20260509040101 | 12 | 249 | 0.0 | 1.6 | 0.00 | 0.00 | 0.00 | ||
| 20260509033037 | 12 | 224 | 0.0 | 0.0 | 0.00 | 0.00 | 0.00 | ||
| 20260509030109 | 12 | 254 | 1.6 | 9.7 | 0.00 | 0.00 | 0.00 | ||
| 20260509023027 | 13 | 253 | 1.6 | 6.4 | 0.00 | 0.00 | 0.00 | ||
| 20260509020050 | 13 | 260 | 0.0 | 3.2 | 0.00 | 0.00 | 0.00 | ||
| 20260509013032 | 13 | 141 | 0.0 | 3.2 | 0.00 | 0.00 | 0.00 | ||
| 20260509010104 | 13 | 221 | 0.0 | 3.2 | 0.00 | 0.00 | 0.00 | ||
| 20260509000055 | 13 | 138 | 0.0 | 8.0 | 0.00 | 0.00 | 0.00 | ||
| 20260508233035 | 13 | 250 | 3.2 | 9.7 | 0.00 | 0.00 | 0.00 | ||
| 20260508230107 | 14 | 255 | 3.2 | 6.4 | 0.00 | 0.00 | 0.00 | ||
| 20260508223047 | 13 | 207 | 3.2 | 11.3 | 0.00 | 0.00 | 0.00 | ||
| 20260508220058 | 15 | 262 | 1.6 | 11.3 | 0.00 | 0.00 | 0.00 | ||
| 20260508203033 | 15 | 305 | 0.0 | 12.9 | 0.00 | 0.00 | 0.00 | ||
| 20260508200104 | 15 | 273 | 3.2 | 8.0 | 0.00 | 0.00 | 0.00 | ||
| 20260508193040 | 13 | 243 | 1.6 | 4.8 | 0.00 | 0.00 | 0.00 | ||
| 20260508190050 | 14 | 233 | 0.0 | 8.0 | 0.00 | 0.00 | 0.00 | ||
| 20260508180100 | 13 | 260 | 0.0 | 6.4 | 0.00 | 0.00 | 0.00 | ||
| 20260508173040 | 12 | 218 | 1.6 | 8.0 | 0.00 | 0.00 | 0.00 | ||
| 20260508170050 | 11 | 250 | 3.2 | 6.4 | 0.00 | 0.00 | 0.00 | ||
| 20260508163051 | 12 | 297 | 0.0 | 4.8 | 0.00 | 0.00 | 0.00 | ||
| 20260508153047 | 11 | 287 | 1.6 | 4.8 | 0.00 | 0.00 | 0.00 | ||
| 20260508150059 | 10 | 104 | 0.0 | 3.2 | 0.00 | 0.00 | 0.00 | ||
| 20260508143038 | 10 | 199 | 0.0 | 3.2 | 0.00 | 0.00 | 0.00 | ||
| 20260508133039 | 10 | 261 | 1.6 | 4.8 | 0.00 | 0.00 | 0.00 | ||
| 20260508130107 | 10 | 246 | 0.0 | 1.6 | 0.00 | 0.00 | 0.00 | ||
| 20260508123046 | 10 | 238 | 0.0 | 6.4 | 0.00 | 0.00 | 0.00 | ||
| 20260508120056 | 10 | 243 | 0.0 | 3.2 | 0.00 | 0.00 | 0.00 | ||
| 20260508113040 | 9 | 256 | 1.6 | 4.8 | 0.00 | 0.00 | 0.00 | ||
| 20260508110110 | 9 | 135 | 0.0 | 1.6 | 0.00 | 0.00 | 0.00 |